Montpelier, VT

6:56 PM EST on November 18, 2019 (GMT -0500)
Knapp State

Weather History for KMPV - September, 2019

Change the Weather History Date:

Monday, September 9, 2019

  Actual Average Record
Temperature  
Mean Temperature 52 °F 60 °F  
Max Temperature 64 °F 72 °F 92 °F (2002)
Min Temperature 41 °F 49 °F 30 °F (1955)
Degree Days  
Heating Degree Days 12 6  
Month to date heating degree days 63 44  
Since 1 July heating degree days 131 152  
Cooling Degree Days 0 1  
Month to date cooling degree days 0 9  
Year to date cooling degree days 211 253  
Growing Degree Days 2 (Base 50)    
Moisture  
Dew Point 44 °F    
Average Humidity 89    
Maximum Humidity 100    
Minimum Humidity 48    
Precipitation  
Precipitation 0.00 in 0.09 in 1.08 in (2004)
Month to date precipitation 1.22 0.81  
Year to date precipitation 36.02 25.61  
Sea Level Pressure  
Sea Level Pressure 30.34 in    
Wind  
Wind Speed 1 mph ()    
Max Wind Speed 10 mph    
Max Gust Speed 13 mph    
Visibility 6.1 miles    
Events Fog    
T = Trace of Precipitation, MM = Missing Value Source: Averaged Metar Reports

Daily Weather History Graph

Daily Weather History Graph

Search for Another Location

Airport or City:

Astronomy

Sep. 09, 2019 Rise Set
Actual Time 6:22 AM EDT 7:12 PM EDT
Civil Twilight 5:52 AM EDT 7:41 PM EDT
Nautical Twilight 5:17 AM EDT 8:16 PM EDT
Astronomical Twilight 4:41 AM EDT 8:52 PM EDT
Moon 5:15 PM EDT (9/9) 1:40 AM EDT (9/9)
Length of Visible Light 13h 48m
Length of Day
12h 50m
Waxing Gibbous, 83% of the Moon is Illuminated
Sep 9
Waxing Gibbous
Sep 14
Full
Sep 21
Last Quarter
Sep 28
New
Oct 5
First Quarter

Hourly Weather History & Observations

Time (EDT) Temp. Windchill Dew Point Humidity Pressure Visibility Wind Dir Wind Speed Gust Speed Precip Events Conditions
12:51 AM 48.0 °F - 46.0 °F 93% 30.27 in 10.0 mi South 3.5 mph - N/A   Clear
1:51 AM 48.9 °F - 46.9 °F 93% 30.27 in 10.0 mi Calm Calm - N/A   Partly Cloudy
2:51 AM 46.9 °F - 46.0 °F 97% 30.26 in 10.0 mi West 3.5 mph - N/A   Clear
3:51 AM 45.0 °F - 43.0 °F 93% 30.27 in 10.0 mi Calm Calm - N/A   Clear
4:51 AM 44.1 °F - 43.0 °F 96% 30.29 in 10.0 mi Calm Calm - N/A   Clear
5:51 AM 43.0 °F - 42.1 °F 97% 30.31 in 10.0 mi Calm Calm - N/A   Partly Cloudy
6:04 AM 42.1 °F - 42.1 °F 100% 30.30 in 8.0 mi Calm Calm - N/A   Scattered Clouds
6:24 AM 41.0 °F 38.0 °F 39.9 °F 96% 30.30 in 1.0 mi SSE 4.6 mph - N/A   Mist
6:31 AM 42.1 °F 40.2 °F 41.0 °F 96% 30.31 in 0.5 mi SSE 3.5 mph - N/A Fog Fog
6:46 AM 41.0 °F - 41.0 °F 100% 30.31 in 1.2 mi Calm Calm - N/A   Mostly Cloudy
6:48 AM 41.0 °F - 41.0 °F 100% 30.31 in 3.0 mi Calm Calm - N/A   Mostly Cloudy
6:51 AM 41.0 °F - 41.0 °F 100% 30.34 in 2.5 mi Calm Calm - N/A   Mostly Cloudy
6:53 AM 41.0 °F - 41.0 °F 100% 30.32 in 1.0 mi Calm Calm - N/A   Mist
7:00 AM 42.1 °F - 42.1 °F 100% 30.32 in 0.5 mi Calm Calm - N/A Fog Fog
7:04 AM 42.1 °F - 42.1 °F 100% 30.32 in 1.5 mi Calm Calm - N/A   Scattered Clouds
7:07 AM 42.1 °F - 42.1 °F 100% 30.32 in 3.0 mi Calm Calm - N/A   Scattered Clouds
7:11 AM 42.1 °F - 42.1 °F 100% 30.32 in 1.8 mi Calm Calm - N/A   Mostly Cloudy
7:14 AM 43.0 °F - 42.1 °F 97% 30.32 in 1.0 mi Calm Calm - N/A   Mist
7:21 AM 43.0 °F - 43.0 °F 100% 30.32 in 0.8 mi Calm Calm - N/A   Mist
7:30 AM 44.1 °F - 44.1 °F 100% 30.33 in 1.0 mi Calm Calm - N/A   Overcast
7:37 AM 44.1 °F - 44.1 °F 100% 30.33 in 1.5 mi Calm Calm - N/A   Overcast
7:51 AM 44.1 °F - 44.1 °F 100% 30.36 in 0.8 mi Calm Calm - N/A   Overcast
8:51 AM 46.9 °F - 46.9 °F 100% 30.38 in 0.2 mi NNE 3.5 mph - N/A Fog Fog
9:12 AM 48.0 °F - 48.0 °F 100% 30.37 in 1.2 mi Calm Calm - N/A   Overcast
9:15 AM 48.0 °F - 48.0 °F 100% 30.37 in 3.0 mi Calm Calm - N/A   Overcast
9:51 AM 48.9 °F - 48.9 °F 100% 30.39 in 10.0 mi East 4.6 mph - N/A   Scattered Clouds
10:51 AM 55.0 °F - 48.9 °F 80% 30.38 in 10.0 mi North 3.5 mph - N/A   Partly Cloudy
11:51 AM 57.9 °F - 46.0 °F 65% 30.36 in 10.0 mi NNW 6.9 mph - N/A   Scattered Clouds
12:51 PM 60.1 °F - 45.0 °F 57% 30.35 in 10.0 mi Variable 3.5 mph - N/A   Clear
1:51 PM 62.1 °F - 44.1 °F 52% 30.34 in 10.0 mi North - - N/A   Partly Cloudy
2:51 PM 63.0 °F - 45.0 °F 52% 30.34 in 10.0 mi NNW 8.1 mph - N/A   Mostly Cloudy
3:51 PM 63.0 °F - 43.0 °F 48% 30.34 in 10.0 mi Calm Calm - N/A   Clear
4:51 PM 62.1 °F - 44.1 °F 52% 30.33 in 10.0 mi NNW 6.9 mph - N/A   Scattered Clouds
5:51 PM 61.0 °F - 43.0 °F 52% 30.34 in 10.0 mi NNW 5.8 mph - N/A   Clear
6:51 PM 55.0 °F - 45.0 °F 69% 30.36 in 10.0 mi Calm Calm - N/A   Clear
7:51 PM 50.0 °F - 46.9 °F 89% 30.38 in 10.0 mi Calm Calm - N/A   Clear
8:51 PM 48.0 °F - 45.0 °F 89% 30.40 in 10.0 mi Calm Calm - N/A   Clear
9:51 PM 46.9 °F - 44.1 °F 90% 30.41 in 10.0 mi Calm Calm - N/A   Clear
10:51 PM 46.0 °F - 44.1 °F 93% 30.41 in 10.0 mi Calm Calm - N/A   Partly Cloudy
11:51 PM 44.1 °F - 43.0 °F 96% 30.42 in 10.0 mi Calm Calm - N/A   Clear